Year,Month,Day,Hour,Minute,Value (Times are PST for windspeed in km/hr)
2015,12,11,00,00,3.50
2015,12,11,00,01,1.70
2015,12,11,00,02,1.50
2015,12,11,00,03,1.80
2015,12,11,00,04,1.10
2015,12,11,00,05,0.10
2015,12,11,00,06,0.00
2015,12,11,00,07,0.00
2015,12,11,00,08,0.20
2015,12,11,00,09,0.70
2015,12,11,00,10,0.10
2015,12,11,00,11,0.30
2015,12,11,00,12,1.00
2015,12,11,00,13,3.00
2015,12,11,00,14,1.50
2015,12,11,00,15,2.50
2015,12,11,00,16,1.90
2015,12,11,00,17,3.20
2015,12,11,00,18,3.10
2015,12,11,00,19,1.90
2015,12,11,00,20,0.70
2015,12,11,00,21,2.30
2015,12,11,00,22,3.40
2015,12,11,00,23,3.30
2015,12,11,00,24,4.40
2015,12,11,00,25,2.10
2015,12,11,00,26,1.00
2015,12,11,00,27,1.20
2015,12,11,00,28,1.60
2015,12,11,00,29,0.50
2015,12,11,00,30,2.50
2015,12,11,00,31,2.20
2015,12,11,00,32,1.50
2015,12,11,00,33,3.30
2015,12,11,00,34,9.00
2015,12,11,00,35,5.60
2015,12,11,00,36,2.30
2015,12,11,00,37,6.00
2015,12,11,00,38,8.20
2015,12,11,00,39,7.90
2015,12,11,00,40,7.20
2015,12,11,00,41,8.40
2015,12,11,00,42,9.50
2015,12,11,00,43,7.70
2015,12,11,00,44,8.90
2015,12,11,00,45,7.30
2015,12,11,00,46,5.60
2015,12,11,00,47,5.80
2015,12,11,00,48,8.10
2015,12,11,00,49,7.10
2015,12,11,00,50,6.00
2015,12,11,00,51,6.90
2015,12,11,00,52,5.30
2015,12,11,00,53,7.20
2015,12,11,00,54,4.80
2015,12,11,00,55,5.70
2015,12,11,00,56,5.60
2015,12,11,00,57,5.80
2015,12,11,00,58,4.40
2015,12,11,00,59,7.10
2015,12,11,01,00,6.70
2015,12,11,01,01,5.30
2015,12,11,01,02,7.50
2015,12,11,01,03,7.30
2015,12,11,01,04,8.90
2015,12,11,01,05,10.50
2015,12,11,01,06,8.90
2015,12,11,01,07,13.60
2015,12,11,01,08,6.00
2015,12,11,01,09,7.50
2015,12,11,01,10,8.70
2015,12,11,01,11,7.10
2015,12,11,01,12,9.20
2015,12,11,01,13,13.00
2015,12,11,01,14,8.10
2015,12,11,01,15,10.80
2015,12,11,01,16,7.10
2015,12,11,01,17,6.80
2015,12,11,01,18,12.30
2015,12,11,01,19,14.80
2015,12,11,01,20,12.60
2015,12,11,01,21,14.50
2015,12,11,01,22,8.10
2015,12,11,01,23,10.40
2015,12,11,01,24,11.10
2015,12,11,01,25,15.90
2015,12,11,01,26,13.20
2015,12,11,01,27,13.10
2015,12,11,01,28,10.50
2015,12,11,01,29,13.20
2015,12,11,01,30,9.40
2015,12,11,01,31,14.60
2015,12,11,01,32,17.20
2015,12,11,01,33,16.20
2015,12,11,01,34,15.60
2015,12,11,01,35,13.00
2015,12,11,01,36,10.90
2015,12,11,01,37,17.90
2015,12,11,01,38,18.40
2015,12,11,01,39,14.20
2015,12,11,01,40,10.20
2015,12,11,01,41,9.50
2015,12,11,01,42,9.70
2015,12,11,01,43,9.00
2015,12,11,01,44,11.60
2015,12,11,01,45,11.20
2015,12,11,01,46,15.40
2015,12,11,01,47,11.80
2015,12,11,01,48,12.10
2015,12,11,01,49,14.90
2015,12,11,01,50,9.10
2015,12,11,01,51,15.20
2015,12,11,01,52,15.90
2015,12,11,01,53,13.40
2015,12,11,01,54,19.20
2015,12,11,01,55,15.10
2015,12,11,01,56,14.10
2015,12,11,01,57,11.20
2015,12,11,01,58,14.90
2015,12,11,01,59,15.10
2015,12,11,02,00,16.00
2015,12,11,02,01,7.80
2015,12,11,02,02,14.60
2015,12,11,02,03,7.60
2015,12,11,02,04,16.90
2015,12,11,02,05,8.40
2015,12,11,02,06,14.20
2015,12,11,02,07,12.10
2015,12,11,02,08,11.30
2015,12,11,02,09,8.50
2015,12,11,02,10,7.90
2015,12,11,02,11,7.90
2015,12,11,02,12,12.60
2015,12,11,02,13,11.10
2015,12,11,02,14,10.60
2015,12,11,02,15,10.70
2015,12,11,02,16,9.30
2015,12,11,02,17,14.00
2015,12,11,02,18,14.20
2015,12,11,02,19,10.50
2015,12,11,02,20,9.50
2015,12,11,02,21,11.80
2015,12,11,02,22,10.20
2015,12,11,02,23,9.00
2015,12,11,02,24,11.10
2015,12,11,02,25,9.80
2015,12,11,02,26,9.20
2015,12,11,02,27,15.40
2015,12,11,02,28,11.20
2015,12,11,02,29,12.20
2015,12,11,02,30,9.30
2015,12,11,02,31,11.30
2015,12,11,02,32,10.10
2015,12,11,02,33,13.00
2015,12,11,02,34,8.40
2015,12,11,02,35,11.60
2015,12,11,02,36,11.30
2015,12,11,02,37,8.50
2015,12,11,02,38,11.80
2015,12,11,02,39,11.20
2015,12,11,02,40,8.70
2015,12,11,02,41,10.50
2015,12,11,02,42,13.80
2015,12,11,02,43,12.10
2015,12,11,02,44,9.20
2015,12,11,02,45,10.30
2015,12,11,02,46,7.10
2015,12,11,02,47,9.20
2015,12,11,02,48,6.60
2015,12,11,02,49,10.60
2015,12,11,02,50,12.00
2015,12,11,02,51,8.50
2015,12,11,02,52,5.60
2015,12,11,02,53,11.20
2015,12,11,02,54,11.60
2015,12,11,02,55,7.00
2015,12,11,02,56,8.30
2015,12,11,02,57,9.70
2015,12,11,02,58,11.30
2015,12,11,02,59,13.00
2015,12,11,03,00,8.10
2015,12,11,03,01,11.20
2015,12,11,03,02,6.50
2015,12,11,03,03,8.40
2015,12,11,03,04,9.60
2015,12,11,03,05,4.60
2015,12,11,03,06,6.70
2015,12,11,03,07,3.50
2015,12,11,03,08,9.50
2015,12,11,03,09,9.00
2015,12,11,03,10,7.00
2015,12,11,03,11,4.60
2015,12,11,03,12,6.20
2015,12,11,03,13,8.00
2015,12,11,03,14,7.90
2015,12,11,03,15,14.90
2015,12,11,03,16,12.20
2015,12,11,03,17,8.80
2015,12,11,03,18,13.00
2015,12,11,03,19,6.20
2015,12,11,03,20,13.40
2015,12,11,03,21,14.90
2015,12,11,03,22,15.20
2015,12,11,03,23,15.80
2015,12,11,03,24,12.10
2015,12,11,03,25,11.70
2015,12,11,03,26,13.40
2015,12,11,03,27,14.30
2015,12,11,03,28,10.10
2015,12,11,03,29,9.10
2015,12,11,03,30,8.30
2015,12,11,03,31,9.30
2015,12,11,03,32,7.00
2015,12,11,03,33,8.30
2015,12,11,03,34,12.50
2015,12,11,03,35,6.30
2015,12,11,03,36,9.30
2015,12,11,03,37,4.60
2015,12,11,03,38,9.80
2015,12,11,03,39,13.30
2015,12,11,03,40,8.90
2015,12,11,03,41,7.90
2015,12,11,03,42,6.80
2015,12,11,03,43,10.10
2015,12,11,03,44,9.30
2015,12,11,03,45,8.70
2015,12,11,03,46,10.00
2015,12,11,03,47,8.90
2015,12,11,03,48,12.60
2015,12,11,03,49,12.20
2015,12,11,03,50,7.60
2015,12,11,03,51,11.70
2015,12,11,03,52,8.00
2015,12,11,03,53,12.60
2015,12,11,03,54,8.70
2015,12,11,03,55,5.60
2015,12,11,03,56,10.00
2015,12,11,03,57,14.30
2015,12,11,03,58,7.90
2015,12,11,03,59,7.00
2015,12,11,04,00,9.70
2015,12,11,04,01,7.70
2015,12,11,04,02,11.30
2015,12,11,04,03,13.80
2015,12,11,04,04,12.00
2015,12,11,04,05,14.80
2015,12,11,04,06,6.90
2015,12,11,04,07,12.20
2015,12,11,04,08,10.30
2015,12,11,04,09,7.50
2015,12,11,04,10,6.60
2015,12,11,04,11,6.60
2015,12,11,04,12,5.10
2015,12,11,04,13,6.00
2015,12,11,04,14,8.80
2015,12,11,04,15,11.70
2015,12,11,04,16,8.70
2015,12,11,04,17,5.60
2015,12,11,04,18,9.90
2015,12,11,04,19,9.30
2015,12,11,04,20,5.60
2015,12,11,04,21,11.00
2015,12,11,04,22,9.50
2015,12,11,04,23,7.10
2015,12,11,04,24,8.80
2015,12,11,04,25,9.50
2015,12,11,04,26,11.30
2015,12,11,04,27,10.70
2015,12,11,04,28,5.90
2015,12,11,04,29,7.60
2015,12,11,04,30,8.20
2015,12,11,04,31,13.90
2015,12,11,04,32,10.90
2015,12,11,04,33,10.80
2015,12,11,04,34,5.10
2015,12,11,04,35,8.20
2015,12,11,04,36,9.30
2015,12,11,04,37,7.60
2015,12,11,04,38,9.70
2015,12,11,04,39,6.40
2015,12,11,04,40,7.40
2015,12,11,04,41,8.70
2015,12,11,04,42,4.30
2015,12,11,04,43,6.90
2015,12,11,04,44,8.70
2015,12,11,04,45,11.00
2015,12,11,04,46,12.20
2015,12,11,04,47,8.90
2015,12,11,04,48,12.00
2015,12,11,04,49,12.00
2015,12,11,04,50,12.40
2015,12,11,04,51,5.90
2015,12,11,04,52,15.00
2015,12,11,04,53,10.50
2015,12,11,04,54,8.90
2015,12,11,04,55,16.50
2015,12,11,04,56,11.80
2015,12,11,04,57,9.20
2015,12,11,04,58,9.50
2015,12,11,04,59,11.40
2015,12,11,05,00,8.70
2015,12,11,05,01,9.70
2015,12,11,05,02,12.10
2015,12,11,05,03,16.40
2015,12,11,05,04,11.00
2015,12,11,05,05,9.60
2015,12,11,05,06,9.50
2015,12,11,05,07,10.00
2015,12,11,05,08,11.40
2015,12,11,05,09,8.70
2015,12,11,05,10,15.40
2015,12,11,05,11,14.30
2015,12,11,05,12,10.90
2015,12,11,05,13,9.70
2015,12,11,05,14,11.10
2015,12,11,05,15,9.10
2015,12,11,05,16,8.90
2015,12,11,05,17,10.40
2015,12,11,05,18,13.80
2015,12,11,05,19,11.70
2015,12,11,05,20,12.30
2015,12,11,05,21,10.70
2015,12,11,05,22,14.30
2015,12,11,05,23,13.70
2015,12,11,05,24,15.40
2015,12,11,05,25,14.20
2015,12,11,05,26,13.90
2015,12,11,05,27,11.90
2015,12,11,05,28,13.00
2015,12,11,05,29,10.40
2015,12,11,05,30,6.70
2015,12,11,05,31,13.90
2015,12,11,05,32,12.30
2015,12,11,05,33,8.50
2015,12,11,05,34,9.70
2015,12,11,05,35,8.60
2015,12,11,05,36,11.30
2015,12,11,05,37,10.30
2015,12,11,05,38,9.50
2015,12,11,05,39,12.40
2015,12,11,05,40,5.00
2015,12,11,05,41,4.50
2015,12,11,05,42,12.20
2015,12,11,05,43,10.90
2015,12,11,05,44,14.20
2015,12,11,05,45,9.90
2015,12,11,05,46,4.80
2015,12,11,05,47,7.00
2015,12,11,05,48,5.60
2015,12,11,05,49,6.60
2015,12,11,05,50,5.90
2015,12,11,05,51,6.40
2015,12,11,05,52,6.20
2015,12,11,05,53,5.10
2015,12,11,05,54,10.00
2015,12,11,05,55,9.20
2015,12,11,05,56,9.40
2015,12,11,05,57,7.00
2015,12,11,05,58,11.30
2015,12,11,05,59,12.60
2015,12,11,06,00,6.70
2015,12,11,06,01,12.60
2015,12,11,06,02,7.70
2015,12,11,06,03,8.00
2015,12,11,06,04,8.40
2015,12,11,06,05,4.80
2015,12,11,06,06,5.30
2015,12,11,06,07,11.30
2015,12,11,06,08,11.80
2015,12,11,06,09,7.20
2015,12,11,06,10,12.30
2015,12,11,06,11,14.60
2015,12,11,06,12,7.30
2015,12,11,06,13,6.80
2015,12,11,06,14,5.60
2015,12,11,06,15,8.60
2015,12,11,06,16,8.20
2015,12,11,06,17,6.60
2015,12,11,06,18,2.80
2015,12,11,06,19,5.50
2015,12,11,06,20,10.50
2015,12,11,06,21,6.50
2015,12,11,06,22,5.80
2015,12,11,06,23,3.70
2015,12,11,06,24,4.20
2015,12,11,06,25,2.80
2015,12,11,06,26,9.40
2015,12,11,06,27,6.10
2015,12,11,06,28,7.80
2015,12,11,06,29,4.80
2015,12,11,06,30,2.70
2015,12,11,06,31,7.50
2015,12,11,06,32,7.40
2015,12,11,06,33,6.20
2015,12,11,06,34,5.60
2015,12,11,06,35,5.30
2015,12,11,06,36,7.40
2015,12,11,06,37,5.20
2015,12,11,06,38,6.00
2015,12,11,06,39,3.50
2015,12,11,06,40,3.70
2015,12,11,06,41,5.50
2015,12,11,06,42,7.40
2015,12,11,06,43,7.00
2015,12,11,06,44,11.70
2015,12,11,06,45,9.20
2015,12,11,06,46,6.10
2015,12,11,06,47,12.40
2015,12,11,06,48,10.70
2015,12,11,06,49,8.90
2015,12,11,06,50,8.50
2015,12,11,06,51,9.80
2015,12,11,06,52,9.60
2015,12,11,06,53,10.70
2015,12,11,06,54,10.90
2015,12,11,06,55,9.10
2015,12,11,06,56,5.50
2015,12,11,06,57,7.80
2015,12,11,06,58,8.10
2015,12,11,06,59,4.70
2015,12,11,07,00,5.70
2015,12,11,07,01,5.30
2015,12,11,07,02,3.90
2015,12,11,07,03,6.30
2015,12,11,07,04,6.10
2015,12,11,07,05,4.30
2015,12,11,07,06,8.00
2015,12,11,07,07,8.20
2015,12,11,07,08,8.70
2015,12,11,07,09,8.20
2015,12,11,07,10,10.50
2015,12,11,07,11,9.50
2015,12,11,07,12,8.90
2015,12,11,07,13,9.10
2015,12,11,07,14,6.00
2015,12,11,07,15,7.20
2015,12,11,07,16,7.80
2015,12,11,07,17,7.30
2015,12,11,07,18,6.90
2015,12,11,07,19,8.40
2015,12,11,07,20,5.60
2015,12,11,07,21,5.40
2015,12,11,07,22,5.30
2015,12,11,07,23,10.20
2015,12,11,07,24,9.70
2015,12,11,07,25,6.60
2015,12,11,07,26,9.30
2015,12,11,07,27,8.70
2015,12,11,07,28,10.40
2015,12,11,07,29,7.00
2015,12,11,07,30,8.40
2015,12,11,07,31,11.40
2015,12,11,07,32,7.60
2015,12,11,07,33,5.50
2015,12,11,07,34,6.90
2015,12,11,07,35,4.90
2015,12,11,07,36,5.60
2015,12,11,07,37,7.20
2015,12,11,07,38,4.70
2015,12,11,07,39,4.80
2015,12,11,07,40,5.40
2015,12,11,07,41,3.10
2015,12,11,07,42,2.70
2015,12,11,07,43,4.50
2015,12,11,07,44,4.40
2015,12,11,07,45,7.30
2015,12,11,07,46,5.60
2015,12,11,07,47,5.50
2015,12,11,07,48,5.00
2015,12,11,07,49,0.00
2015,12,11,07,50,2.40
2015,12,11,07,51,2.00
2015,12,11,07,52,3.20
2015,12,11,07,53,5.80
2015,12,11,07,54,10.20
2015,12,11,07,55,6.30
2015,12,11,07,56,7.30
2015,12,11,07,57,8.90
2015,12,11,07,58,6.40
2015,12,11,07,59,7.10
2015,12,11,08,00,8.40
2015,12,11,08,01,5.50
2015,12,11,08,02,7.60
2015,12,11,08,03,5.70
2015,12,11,08,04,1.90
2015,12,11,08,05,2.10
2015,12,11,08,06,3.20
2015,12,11,08,07,7.40
2015,12,11,08,08,4.80
2015,12,11,08,09,3.00
2015,12,11,08,10,0.20
2015,12,11,08,11,7.10
2015,12,11,08,12,5.30
2015,12,11,08,13,2.20
2015,12,11,08,14,4.10
2015,12,11,08,15,1.30
2015,12,11,08,16,1.90
2015,12,11,08,17,1.00
2015,12,11,08,18,5.50
2015,12,11,08,19,3.00
2015,12,11,08,20,4.40
2015,12,11,08,21,4.60
2015,12,11,08,22,2.50
2015,12,11,08,23,5.80
2015,12,11,08,24,5.70
2015,12,11,08,25,6.00
2015,12,11,08,26,3.60
2015,12,11,08,27,5.20
2015,12,11,08,28,5.20
2015,12,11,08,29,5.20
2015,12,11,08,30,5.10
2015,12,11,08,31,8.10
2015,12,11,08,32,7.80
2015,12,11,08,33,9.90
2015,12,11,08,34,10.70
2015,12,11,08,35,7.80
2015,12,11,08,36,5.50
2015,12,11,08,37,4.10
2015,12,11,08,38,3.00
2015,12,11,08,39,7.90
2015,12,11,08,40,8.20
2015,12,11,08,41,6.30
2015,12,11,08,42,3.50
2015,12,11,08,43,4.00
2015,12,11,08,44,8.10
2015,12,11,08,45,5.00
2015,12,11,08,46,8.60
2015,12,11,08,47,5.30
2015,12,11,08,48,4.30
2015,12,11,08,49,4.60
2015,12,11,08,50,4.70
2015,12,11,08,51,4.20
2015,12,11,08,52,1.70
2015,12,11,08,53,3.00
2015,12,11,08,54,4.70
2015,12,11,08,55,7.80
2015,12,11,08,56,7.40
2015,12,11,08,57,5.70
2015,12,11,08,58,4.80
2015,12,11,08,59,10.50
2015,12,11,09,00,7.70
2015,12,11,09,01,3.80
2015,12,11,09,02,5.00
2015,12,11,09,03,8.30
2015,12,11,09,04,6.00
2015,12,11,09,05,7.20
2015,12,11,09,06,4.90
2015,12,11,09,07,7.20
2015,12,11,09,08,5.60
2015,12,11,09,09,4.70
2015,12,11,09,10,9.30
2015,12,11,09,11,7.10
2015,12,11,09,12,2.50
2015,12,11,09,13,3.80
2015,12,11,09,14,5.10
2015,12,11,09,15,5.70
2015,12,11,09,16,8.20
2015,12,11,09,17,9.20
2015,12,11,09,18,5.70
2015,12,11,09,19,6.00
2015,12,11,09,20,3.10
2015,12,11,09,21,2.10
2015,12,11,09,22,5.70
2015,12,11,09,23,7.40
2015,12,11,09,24,5.70
2015,12,11,09,25,2.70
2015,12,11,09,26,5.40
2015,12,11,09,27,7.60
2015,12,11,09,28,4.10
2015,12,11,09,29,8.70
2015,12,11,09,30,4.80
2015,12,11,09,31,8.30
2015,12,11,09,32,8.10
2015,12,11,09,33,7.40
2015,12,11,09,34,4.20
2015,12,11,09,35,4.10
2015,12,11,09,36,4.30
2015,12,11,09,37,6.80
2015,12,11,09,38,6.90
2015,12,11,09,39,6.50
2015,12,11,09,40,11.30
2015,12,11,09,41,11.30
2015,12,11,09,42,6.80
2015,12,11,09,43,11.60
2015,12,11,09,44,9.30
2015,12,11,09,45,5.20
2015,12,11,09,46,5.10
2015,12,11,09,47,6.50
2015,12,11,09,48,6.40
2015,12,11,09,49,7.60
2015,12,11,09,50,8.40
2015,12,11,09,51,7.50
2015,12,11,09,52,5.80
2015,12,11,09,53,2.70
2015,12,11,09,54,3.00
2015,12,11,09,55,7.60
2015,12,11,09,56,6.40
2015,12,11,09,57,6.40
2015,12,11,09,58,5.30
2015,12,11,09,59,6.80
2015,12,11,10,00,7.00
2015,12,11,10,01,7.20
2015,12,11,10,02,6.20
2015,12,11,10,03,2.60
2015,12,11,10,04,6.80
2015,12,11,10,05,0.30
2015,12,11,10,06,6.00
2015,12,11,10,07,2.80
2015,12,11,10,08,3.10
2015,12,11,10,09,6.20
2015,12,11,10,10,4.50
2015,12,11,10,11,3.30
2015,12,11,10,12,4.70
2015,12,11,10,13,3.90
2015,12,11,10,14,1.40
2015,12,11,10,15,0.10
2015,12,11,10,16,0.20
2015,12,11,10,17,3.10
2015,12,11,10,18,2.20
2015,12,11,10,19,1.30
2015,12,11,10,20,3.60
2015,12,11,10,21,5.10
2015,12,11,10,22,4.20
2015,12,11,10,23,6.30
2015,12,11,10,24,3.50
2015,12,11,10,25,6.40
2015,12,11,10,26,2.70
2015,12,11,10,27,9.00
2015,12,11,10,28,7.60
2015,12,11,10,29,7.40
2015,12,11,10,30,6.20
2015,12,11,10,31,7.10
2015,12,11,10,32,6.10
2015,12,11,10,33,8.10
2015,12,11,10,34,8.20
2015,12,11,10,35,6.20
2015,12,11,10,36,5.90
2015,12,11,10,37,3.40
2015,12,11,10,38,8.30
2015,12,11,10,39,10.00
2015,12,11,10,40,6.00
2015,12,11,10,41,2.90
2015,12,11,10,42,4.90
2015,12,11,10,43,1.00
2015,12,11,10,44,8.10
2015,12,11,10,45,7.90
2015,12,11,10,46,6.70
2015,12,11,10,47,7.60
2015,12,11,10,48,5.20
2015,12,11,10,49,1.50
2015,12,11,10,50,1.50
2015,12,11,10,51,3.10
2015,12,11,10,52,2.50
2015,12,11,10,53,9.30
2015,12,11,10,54,7.60
2015,12,11,10,55,3.30
2015,12,11,10,56,3.90
2015,12,11,10,57,4.10
2015,12,11,10,58,7.90
2015,12,11,10,59,3.40
2015,12,11,11,00,1.30
2015,12,11,11,01,12.60
2015,12,11,11,02,8.30
2015,12,11,11,03,6.60
2015,12,11,11,04,5.20
2015,12,11,11,05,6.80
2015,12,11,11,06,4.90
2015,12,11,11,07,8.50
2015,12,11,11,08,7.10
2015,12,11,11,09,7.50
2015,12,11,11,10,5.70
2015,12,11,11,11,8.20
2015,12,11,11,12,6.00
2015,12,11,11,13,7.50
2015,12,11,11,14,3.10
2015,12,11,11,15,9.50
2015,12,11,11,16,8.40
2015,12,11,11,17,6.70
2015,12,11,11,18,5.50
2015,12,11,11,19,3.80
2015,12,11,11,20,5.80
2015,12,11,11,21,7.90
2015,12,11,11,22,6.70
2015,12,11,11,23,11.00
2015,12,11,11,24,5.30
2015,12,11,11,25,7.10
2015,12,11,11,26,6.00
2015,12,11,11,27,3.50
2015,12,11,11,28,6.70
2015,12,11,11,29,9.30
2015,12,11,11,30,5.70
2015,12,11,11,31,11.70
2015,12,11,11,32,11.80
2015,12,11,11,33,8.10
2015,12,11,11,34,8.70
2015,12,11,11,35,6.20
2015,12,11,11,36,7.80
2015,12,11,11,37,4.60
2015,12,11,11,38,3.50
2015,12,11,11,39,5.10
2015,12,11,11,40,8.10
2015,12,11,11,41,9.40
2015,12,11,11,42,8.00
2015,12,11,11,43,8.00
2015,12,11,11,44,4.70
2015,12,11,11,45,6.80
2015,12,11,11,46,3.30
2015,12,11,11,47,6.60
2015,12,11,11,48,11.20
2015,12,11,11,49,8.00
2015,12,11,11,50,8.00
2015,12,11,11,51,7.70
2015,12,11,11,52,6.20
2015,12,11,11,53,9.80
2015,12,11,11,54,6.60
2015,12,11,11,55,6.90
2015,12,11,11,56,9.70
2015,12,11,11,57,7.20
2015,12,11,11,58,8.80
2015,12,11,11,59,3.70
2015,12,11,12,00,4.70
2015,12,11,12,01,6.10
2015,12,11,12,02,2.00
2015,12,11,12,03,4.30
2015,12,11,12,04,1.90
2015,12,11,12,05,2.90
2015,12,11,12,06,3.30
2015,12,11,12,07,7.80
2015,12,11,12,08,6.90
2015,12,11,12,09,4.70
2015,12,11,12,10,4.90
2015,12,11,12,11,6.10
2015,12,11,12,12,6.00
2015,12,11,12,13,4.60
2015,12,11,12,14,4.50
2015,12,11,12,15,8.60
2015,12,11,12,16,8.50
2015,12,11,12,17,8.30
2015,12,11,12,18,8.40
2015,12,11,12,19,8.40
2015,12,11,12,20,6.80
2015,12,11,12,21,7.00
2015,12,11,12,22,6.00
2015,12,11,12,23,5.80
2015,12,11,12,24,8.90
2015,12,11,12,25,5.70
2015,12,11,12,26,3.90
2015,12,11,12,27,9.70
2015,12,11,12,28,10.20
2015,12,11,12,29,8.10
2015,12,11,12,30,9.30
2015,12,11,12,31,4.80
2015,12,11,12,32,4.30
2015,12,11,12,33,4.50
2015,12,11,12,34,4.60
2015,12,11,12,35,7.60
2015,12,11,12,36,7.30
2015,12,11,12,37,6.10
2015,12,11,12,38,10.10
2015,12,11,12,39,8.20
2015,12,11,12,40,7.90
2015,12,11,12,41,11.70
2015,12,11,12,42,8.50
2015,12,11,12,43,12.40
2015,12,11,12,44,12.40
2015,12,11,12,45,8.40
2015,12,11,12,46,5.00
2015,12,11,12,47,9.90
2015,12,11,12,48,6.40
2015,12,11,12,49,4.70
2015,12,11,12,50,3.70
2015,12,11,12,51,6.60
2015,12,11,12,52,8.10
2015,12,11,12,53,8.50
2015,12,11,12,54,7.20
2015,12,11,12,55,8.10
2015,12,11,12,56,13.80
2015,12,11,12,57,7.60
2015,12,11,12,58,10.40
2015,12,11,12,59,11.80
2015,12,11,13,00,9.60
2015,12,11,13,01,7.30
2015,12,11,13,02,7.60
2015,12,11,13,03,10.40
2015,12,11,13,04,7.10
2015,12,11,13,05,5.80
2015,12,11,13,06,10.10
2015,12,11,13,07,7.40
2015,12,11,13,08,3.60
2015,12,11,13,09,7.70
2015,12,11,13,10,6.40
2015,12,11,13,11,7.40
2015,12,11,13,12,3.70
2015,12,11,13,13,5.50
2015,12,11,13,14,8.90
2015,12,11,13,15,8.10
2015,12,11,13,16,4.30
2015,12,11,13,17,7.20
2015,12,11,13,18,8.10
2015,12,11,13,19,5.20
2015,12,11,13,20,8.40
2015,12,11,13,21,7.90
2015,12,11,13,22,5.70
2015,12,11,13,23,8.10
2015,12,11,13,24,7.40
2015,12,11,13,25,9.80
2015,12,11,13,26,9.80
2015,12,11,13,27,8.90
2015,12,11,13,28,9.60
2015,12,11,13,29,9.40
2015,12,11,13,30,9.70
2015,12,11,13,31,7.90
2015,12,11,13,32,12.70
2015,12,11,13,33,9.50
2015,12,11,13,34,6.80
2015,12,11,13,35,5.50
2015,12,11,13,36,8.70
2015,12,11,13,37,6.80
2015,12,11,13,38,8.90
2015,12,11,13,39,10.00
2015,12,11,13,40,6.40
2015,12,11,13,41,7.60
2015,12,11,13,42,5.90
2015,12,11,13,43,5.20
2015,12,11,13,44,5.30
2015,12,11,13,45,7.80
2015,12,11,13,46,3.30
2015,12,11,13,47,5.60
2015,12,11,13,48,4.40
2015,12,11,13,49,6.80
2015,12,11,13,50,5.40
2015,12,11,13,51,1.10
2015,12,11,13,52,4.40
2015,12,11,13,53,4.10
2015,12,11,13,54,4.70
2015,12,11,13,55,6.00
2015,12,11,13,56,6.90
2015,12,11,13,57,9.30
2015,12,11,13,58,5.00
2015,12,11,13,59,7.30
2015,12,11,14,00,8.90
2015,12,11,14,01,11.30
2015,12,11,14,02,7.40
2015,12,11,14,03,8.80
2015,12,11,14,04,5.70
2015,12,11,14,05,6.50
2015,12,11,14,06,8.50
2015,12,11,14,07,7.90
2015,12,11,14,08,8.00
2015,12,11,14,09,7.10
2015,12,11,14,10,4.20
2015,12,11,14,11,3.60
2015,12,11,14,12,4.40
2015,12,11,14,13,4.60
2015,12,11,14,14,5.50
2015,12,11,14,15,5.00
2015,12,11,14,16,4.50
2015,12,11,14,17,4.10
2015,12,11,14,18,3.60
2015,12,11,14,19,3.80
2015,12,11,14,20,3.00
2015,12,11,14,21,5.40
2015,12,11,14,22,6.40
2015,12,11,14,23,5.40
2015,12,11,14,24,7.70
2015,12,11,14,25,6.00
2015,12,11,14,26,7.10
2015,12,11,14,27,5.70
2015,12,11,14,28,7.30
2015,12,11,14,29,7.30
2015,12,11,14,30,5.40
2015,12,11,14,31,7.50
2015,12,11,14,32,3.80
2015,12,11,14,33,2.90
2015,12,11,14,34,2.30
2015,12,11,14,35,2.60
2015,12,11,14,36,4.10
2015,12,11,14,37,5.00
2015,12,11,14,38,3.90
2015,12,11,14,39,1.30
2015,12,11,14,40,2.00
2015,12,11,14,41,2.70
2015,12,11,14,42,4.50
2015,12,11,14,43,7.90
2015,12,11,14,44,3.50
2015,12,11,14,45,3.90
2015,12,11,14,46,0.30
2015,12,11,14,47,5.60
2015,12,11,14,48,5.50
2015,12,11,14,49,4.60
2015,12,11,14,50,4.30
2015,12,11,14,51,1.90
2015,12,11,14,52,0.90
2015,12,11,14,53,3.20
2015,12,11,14,54,0.10
2015,12,11,14,55,0.00
2015,12,11,14,56,2.90
2015,12,11,14,57,3.60
2015,12,11,14,58,2.30
2015,12,11,14,59,3.90
2015,12,11,15,00,4.00
2015,12,11,15,01,0.60
2015,12,11,15,02,0.10
2015,12,11,15,03,0.00
2015,12,11,15,04,0.00
2015,12,11,15,05,2.20
2015,12,11,15,06,0.70
2015,12,11,15,07,0.00
2015,12,11,15,08,0.00
2015,12,11,15,09,0.00
2015,12,11,15,10,0.10
2015,12,11,15,11,0.00
2015,12,11,15,12,0.00
2015,12,11,15,13,0.10
2015,12,11,15,14,0.00
2015,12,11,15,15,0.10
2015,12,11,15,16,3.10
2015,12,11,15,17,1.10
2015,12,11,15,18,4.70
2015,12,11,15,19,1.60
2015,12,11,15,20,2.30
2015,12,11,15,21,0.10
2015,12,11,15,22,0.10
2015,12,11,15,23,3.60
2015,12,11,15,24,3.90
2015,12,11,15,25,2.50
2015,12,11,15,26,4.90
2015,12,11,15,27,5.00
2015,12,11,15,28,2.80
2015,12,11,15,29,3.10
2015,12,11,15,30,2.00
2015,12,11,15,31,1.20
2015,12,11,15,32,4.20
2015,12,11,15,33,0.20
2015,12,11,15,34,0.10
2015,12,11,15,35,2.80
2015,12,11,15,36,2.50
2015,12,11,15,37,0.00
2015,12,11,15,38,0.40
2015,12,11,15,39,3.10
2015,12,11,15,40,2.90
2015,12,11,15,41,1.80
2015,12,11,15,42,0.00
2015,12,11,15,43,0.00
2015,12,11,15,44,0.10
2015,12,11,15,45,0.00
2015,12,11,15,46,0.40
2015,12,11,15,47,0.00
2015,12,11,15,48,0.00
2015,12,11,15,49,0.10
2015,12,11,15,50,0.00
2015,12,11,15,51,0.00
2015,12,11,15,52,0.00
2015,12,11,15,53,0.00
2015,12,11,15,54,0.00
2015,12,11,15,55,0.10
2015,12,11,15,56,0.00
2015,12,11,15,57,0.00
2015,12,11,15,58,0.00
2015,12,11,15,59,0.00
2015,12,11,16,00,0.00
2015,12,11,16,01,0.00
2015,12,11,16,02,0.00
2015,12,11,16,03,0.00
2015,12,11,16,04,0.00
2015,12,11,16,05,0.00
2015,12,11,16,06,0.00
2015,12,11,16,07,0.00
2015,12,11,16,08,0.00
2015,12,11,16,09,0.00
2015,12,11,16,10,0.10
2015,12,11,16,11,0.00
2015,12,11,16,12,0.00
2015,12,11,16,13,0.00
2015,12,11,16,14,0.00
2015,12,11,16,15,0.10
2015,12,11,16,16,0.00
2015,12,11,16,17,0.00
2015,12,11,16,18,0.00
2015,12,11,16,19,0.00
2015,12,11,16,20,0.70
2015,12,11,16,21,0.00
2015,12,11,16,22,0.00
2015,12,11,16,23,0.00
2015,12,11,16,24,0.20
2015,12,11,16,25,0.60
2015,12,11,16,26,0.00
2015,12,11,16,27,0.00
2015,12,11,16,28,0.00
2015,12,11,16,29,0.70
2015,12,11,16,30,0.20
2015,12,11,16,31,0.00
2015,12,11,16,32,0.00
2015,12,11,16,33,0.00
2015,12,11,16,34,0.00
2015,12,11,16,35,0.00
2015,12,11,16,36,0.00
2015,12,11,16,37,0.00
2015,12,11,16,38,0.10
2015,12,11,16,39,0.00
2015,12,11,16,40,0.10
2015,12,11,16,41,0.00
2015,12,11,16,42,1.00
2015,12,11,16,43,0.70
2015,12,11,16,44,0.00
2015,12,11,16,45,0.00
2015,12,11,16,46,1.50
2015,12,11,16,47,0.60
2015,12,11,16,48,0.00
2015,12,11,16,49,0.40
2015,12,11,16,50,0.40
2015,12,11,16,51,0.10
2015,12,11,16,52,0.00
2015,12,11,16,53,0.00
2015,12,11,16,54,1.20
2015,12,11,16,55,0.90
2015,12,11,16,56,0.00
2015,12,11,16,57,0.80
2015,12,11,16,58,0.40
2015,12,11,16,59,1.00
2015,12,11,17,00,0.00
2015,12,11,17,01,0.10
2015,12,11,17,02,0.00
2015,12,11,17,03,0.10
2015,12,11,17,04,1.50
2015,12,11,17,05,0.00
2015,12,11,17,06,0.00
2015,12,11,17,07,0.10
2015,12,11,17,08,0.00
2015,12,11,17,09,0.20
2015,12,11,17,10,0.80
2015,12,11,17,11,0.80
2015,12,11,17,12,0.00
2015,12,11,17,13,0.00
2015,12,11,17,14,0.10
2015,12,11,17,15,0.00
2015,12,11,17,16,0.00
2015,12,11,17,17,0.00
2015,12,11,17,18,0.00
2015,12,11,17,19,0.60
2015,12,11,17,20,0.00
2015,12,11,17,21,0.60
2015,12,11,17,22,0.00
2015,12,11,17,23,0.00
2015,12,11,17,24,0.10
2015,12,11,17,25,0.60
2015,12,11,17,26,0.20
2015,12,11,17,27,2.20
2015,12,11,17,28,1.50
2015,12,11,17,29,0.00
2015,12,11,17,30,0.00
2015,12,11,17,31,0.40
2015,12,11,17,32,0.80
2015,12,11,17,33,0.10
2015,12,11,17,34,0.00
2015,12,11,17,35,0.00
2015,12,11,17,36,0.00
2015,12,11,17,37,1.70
2015,12,11,17,38,1.10
2015,12,11,17,39,0.00
2015,12,11,17,40,1.00
2015,12,11,17,41,0.10
2015,12,11,17,42,0.60
2015,12,11,17,43,0.00
2015,12,11,17,44,0.40
2015,12,11,17,45,1.80
2015,12,11,17,46,0.00
2015,12,11,17,47,0.10
2015,12,11,17,48,0.00
2015,12,11,17,49,0.00
2015,12,11,17,50,0.10
2015,12,11,17,51,0.00
2015,12,11,17,52,0.10
2015,12,11,17,53,0.70
2015,12,11,17,54,0.20
2015,12,11,17,55,0.00
2015,12,11,17,56,0.00
2015,12,11,17,57,0.00